Regional Weather Roundup
Issued by NWS

Home | Current Version | Previous Version | Text Only | Print | Product List | Glossary Off
Versions: 1 2 3 4 5 6 7 8 9 10 11 12 13 14 15 16 17 18 19 20 21 22 23 24 25 26 27 28 29 30 31 32 33 34 35 36 37 38 39 40 41 42 43 44 45 46 47 48 49 50

074
ASUS43 KTOP 280408
RWRKS

WEATHER ROUNDUP FOR KANSAS
NATIONAL WEATHER SERVICE GOODLAND KS
1100 PM CDT FRI MAY 27 2016

NOTE:  "FAIR" INDICATES FEW OR NO CLOUDS BELOW 12,000 FEET WITH NO
SIGNIFICANT WEATHER AND/OR OBSTRUCTIONS TO VISIBILITY.

KSZ001>006-013>018-027>032-041>047-280500-
NORTHWEST KANSAS

CITY           SKY/WX    TMP DP  RH WIND       PRES   REMARKS
GOODLAND       CLOUDY    48  47  96 W8        29.84R
HAYS           CLOUDY    55  48  76 NW14      29.73R
HILL CITY      CLOUDY    61  56  83 NW16G23   29.74R
RUSSELL        LGT RAIN  57  54  89 NE12      29.74R
$$

KSZ061>065-074>080-084>089-280500-
SOUTHWEST KANSAS

CITY           SKY/WX    TMP DP  RH WIND       PRES   REMARKS
DODGE CITY     PTCLDY    56  51  84 NW8       29.74R
ELKHART          N/A     56  44  64 NW18        N/A
GARDEN CITY    PTCLDY    56  48  74 NW14      29.79R
GREAT BEND     CLOUDY    57  48  72 N9        29.72R
LIBERAL        CLEAR     57  45  62 NW14      29.82S
PRATT          CLOUDY    64  56  78 S9        29.69R
$$

KSZ066>073-081>083-090>101-280500-
SOUTHEAST KANSAS

CITY           SKY/WX    TMP DP  RH WIND       PRES   REMARKS
CHANUTE        CLOUDY    61  59  93 SW5       29.80R
COFFEYVILLE    CLOUDY    62  60  93 CALM      29.79R
HUTCHINSON     RAIN      63  59  87 SE12      29.70R
MEDICINE LODGE   N/A     65  58  78 S9        29.69R
NEWTON         CLOUDY    59  54  82 SE12      29.72S
PARSONS        TSTM      61  59  93 CALM      29.82R FOG
WICHITA INTL   MOCLDY    62  58  86 SE9       29.70R
WICHITA JABRA  PTCLDY    61  58  90 SE14      29.70R
WICHITA MCCONL PTCLDY    62  58  86 SE12      29.71R
WINFIELD       CLOUDY    62  59  90 E6        29.74R
$$

KSZ007>012-019>026-033>040-048>060-102>105-280500-
NORTHEAST KANSAS

CITY           SKY/WX    TMP DP  RH WIND       PRES   REMARKS
CONCORDIA      CLOUDY    60  55  83 NE5       29.73R
EMPORIA        MOCLDY    60  57  89 E9        29.70F
LAWRENCE       LGT RAIN  60  59  96 E7        29.79R
MANHATTAN      CLOUDY    61  57  87 NE6       29.70R
MARYSVILLE     PTCLDY    59  57  94 E3        29.73R
OLATHE IND     HVY RAIN  60  58  92 W8        29.81R FOG
OLATHE EXE     RAIN      59  58  96 W9        29.81R FOG
SALINA         CLOUDY    62  54  74 CALM      29.71R
TOPEKA BILLARD LGT RAIN  61  58  90 E7        29.75R
TOPEKA FORBES  LGT RAIN  61  58  90 SE9       29.76R
$$




USA.gov is the U.S. government's official web portal to all federal, state and local government web resources and services.